DW9572 Weather Reports


time (UTC)temp
C
wind
direction
speed
KPH
gust
KPH
rain 1hr
cm
rain 24hr
cm
rain mn
cm
humidity
%
barometer
mb
20260505204543 27 67 14.5 25.7 0.00 0.00 0.00 29 1009.8
20260505203046 27 89 19.3 27.4 0.00 0.00 0.00 28 1010.0
20260505201543 26 8 11.3 27.4 0.00 0.00 0.00 29 1010.0
20260505200029 27 74 22.5 29.0 0.00 0.00 0.00 30 1010.0
20260505194524 26 55 14.5 25.7 0.00 0.00 0.00 32 1010.1
20260505193039 26 43 17.7 35.4 0.00 0.00 0.00 31 1010.1
20260505191522 26 28 16.1 27.4 0.00 0.00 0.00 32 1010.3
20260505190029 25 41 20.9 32.2 0.00 0.00 0.00 32 1010.2
20260505184519 25 3 17.7 30.6 0.00 0.00 0.00 33 1010.4
20260505183017 25 60 19.3 32.2 0.00 0.00 0.00 34 1010.4
20260505181557 23 51 19.3 30.6 0.00 0.00 0.00 35 1010.5
20260505180053 23 65 20.9 30.6 0.00 0.00 0.00 36 1010.4
20260505174538 23 36 22.5 33.8 0.00 0.00 0.00 36 1010.5
20260505173037 22 41 24.1 37.0 0.00 0.00 0.00 37 1010.5
20260505171609 22 23 20.9 33.8 0.00 0.00 0.00 37 1010.5
20260505170012 22 54 20.9 29.0 0.00 0.00 0.00 38 1010.5
20260505164548 22 43 24.1 33.8 0.00 0.00 0.00 38 1010.4
20260505163046 21 30 22.5 27.4 0.00 0.00 0.00 39 1010.4
20260505161525 21 46 19.3 29.0 0.00 0.00 0.00 41 1010.2
20260505153111 19 81 19.3 32.2 0.00 0.00 0.00 46 1010.1
20260505151546 19 91 24.1 29.0 0.00 0.00 0.00 46 1010.0
20260505124608 16 40 8.0 14.5 0.00 0.00 0.00 54 1008.4
20260505123104 16 16 9.7 17.7 0.00 0.00 0.00 54 1008.2
20260505121540 16 4 12.9 19.3 0.00 0.00 0.00 57 1008.0
20260505120021 15 4 16.1 20.9 0.00 0.00 0.00 59 1008.0
20260505114517 15 354 16.1 20.9 0.00 0.00 0.00 62 1007.8
20260505113058 15 349 16.1 19.3 0.00 0.00 0.00 64 1007.8
20260505111602 15 22 6.4 8.0 0.00 0.00 0.00 63 1007.6
20260505101520 16 82 9.7 9.7 0.00 0.00 0.00 58 1006.5
20260505100005 17 353 12.9 14.5 0.00 0.00 0.00 57 1006.4
20260505094501 17 336 0.0 0.0 0.00 0.00 0.00 57 1006.3
20260505093048 16 262 0.0 0.0 0.00 0.00 0.00 57 1006.2
20260505091548 17 25 0.0 3.2 0.00 0.00 0.00 56 1006.2
20260505090042 17 58 6.4 8.0 0.00 0.00 0.00 55 1005.9
20260505084527 19 352 1.6 6.4 0.00 0.00 0.00 47 1005.8
20260505083011 20 320 1.6 8.0 0.00 0.00 0.00 42 1005.8
20260505081508 20 308 0.0 0.0 0.00 0.00 0.00 42 1005.8
20260505080055 20 320 0.0 0.0 0.00 0.00 0.00 43 1005.8
20260505074550 20 353 0.0 1.6 0.00 0.00 0.00 45 1005.7
20260505073045 19 20 1.6 6.4 0.00 0.00 0.00 45 1005.7
20260505071534 20 85 9.7 12.9 0.00 0.00 0.00 44 1005.5
20260505070019 20 255 4.8 9.7 0.00 0.00 0.00 41 1005.1
20260505064513 22 318 9.7 16.1 0.00 0.00 0.00 36 1004.8
20260505063100 21 301 4.8 11.3 0.00 0.00 0.00 39 1004.7
20260505061601 20 321 8.0 14.5 0.00 0.00 0.00 43 1004.8
20260505060038 20 336 0.0 4.8 0.00 0.00 0.00 40 1004.6
20260505054538 23 19 0.0 9.7 0.00 0.00 0.00 32 1004.4
20260505053021 22 29 1.6 14.5 0.00 0.00 0.00 34 1004.5
20260505051523 23 343 12.9 19.3 0.00 0.00 0.00 31 1004.3
20260505041553 27 333 9.7 14.5 0.00 0.00 0.00 22 1004.0
20260505040029 27 323 6.4 9.7 0.00 0.00 0.00 24 1003.9
20260505034526 27 320 6.4 8.0 0.00 0.00 0.00 23 1003.7
20260505033008 27 315 8.0 9.7 0.00 0.00 0.00 24 1003.6
20260505031508 27 316 8.0 9.7 0.00 0.00 0.00 25 1003.5
20260505030050 27 320 0.0 0.0 0.00 0.00 0.00 24 1003.5
20260505024550 27 328 0.0 0.0 0.00 0.00 0.00 25 1003.3
20260505023039 28 340 0.0 0.0 0.00 0.00 0.00 26 1003.3
20260505021534 29 276 0.0 0.0 0.00 0.00 0.00 25 1003.3
20260505020018 29 69 0.0 0.0 0.00 0.00 0.00 26 1003.4
20260505014513 30 103 0.0 1.6 0.00 0.00 0.00 26 1003.4
20260505013055 30 176 0.0 9.7 0.00 0.00 0.00 23 1003.5
20260505011603 30 146 4.8 11.3 0.00 0.00 0.00 23 1003.6
20260505010041 30 158 4.8 12.9 0.00 0.00 0.00 24 1003.7
20260505004544 30 179 0.0 12.9 0.00 0.00 0.00 25 1003.7
20260505003040 31 168 4.8 12.9 0.00 0.00 0.00 24 1003.7
20260505001542 31 158 8.0 14.5 0.00 0.00 0.00 24 1003.9
20260505000040 30 160 4.8 16.1 0.00 0.00 0.00 22 1003.9
20260504234548 31 115 8.0 17.7 0.00 0.00 0.00 22 1003.9
20260504233035 31 127 9.7 20.9 0.00 0.00 0.00 22 1003.9
20260504231536 31 68 1.6 12.9 0.00 0.00 0.00 19 1003.9
20260504230021 31 158 4.8 16.1 0.00 0.00 0.00 21 1004.1
20260504224520 31 117 6.4 16.1 0.00 0.00 0.00 21 1004.3
20260504223018 31 131 1.6 16.1 0.00 0.00 0.00 19 1004.4
20260504221519 30 158 8.0 20.9 0.00 0.00 0.00 23 1004.5
20260504220013 30 113 8.0 14.5 0.00 0.00 0.00 24 1004.8
20260504214512 31 48 14.5 20.9 0.00 0.00 0.00 17 1005.0
20260504213024 30 311 4.8 17.7 0.00 0.00 0.00 18 1005.2
20260504211512 30 100 14.5 19.3 0.00 0.00 0.00 20 1005.3
20260504210047 30 40 9.7 27.4 0.00 0.00 0.00 19 1005.6